Tracking 29528 objects as of 12-Sep-2024
HD Live streaming from Space Station
objects crossing your sky now

SHIYAN 21 (SY-21)

Track SHIYAN 21 (SY-21) now!
10-day predictions


NORAD ID: 54752
Int'l Code: 2022-172A
Perigee: 487.8 km
Apogee: 491.3 km
Inclination: 36.0 °
Period: 94.3 minutes
Semi major axis: 6860 km
RCS: Unknown
Launch date: December 16, 2022
Source: People's Republic of China (PRC)
Launch site: Xichang Space Center, China (XSC)
Your satellite tracking list
Your tracking list is empty




NASA's NSSDC Master Catalog

Two Line Element Set (TLE):
1 54752U 22172A   24255.89861518  .00027009  00000-0  96968-3 0  9990
2 54752  35.9519 137.5103 0002529 312.8214  47.2306 15.27799818 97258
Source of the keplerian elements: AFSPC